Time,TemperatureF,DewpointF,PressureIn,WindDirection,WindDirectionDegrees,WindSpeedMPH,WindSpeedGustMPH,Humidity,HourlyPrecipIn,Conditions,Clouds,dailyrainin,SoftwareType,DateUTC
2013-02-26 00:02:00,45.5,44.0,29.62,NE,36,12.0,-999.0,93,-99.99,,,0.72,weatherlink.com 1.10,2013-02-26 06:02:00,
2013-02-26 00:17:00,45.5,44.0,29.62,ESE,112,6.0,-999.0,94,-99.99,,,0.77,weatherlink.com 1.10,2013-02-26 06:17:00,
2013-02-26 00:32:00,45.6,44.0,29.59,East,96,13.0,-999.0,93,-99.99,,,0.83,weatherlink.com 1.10,2013-02-26 06:32:00,
2013-02-26 00:47:00,45.5,44.0,29.62,East,92,5.0,-999.0,94,-99.99,,,0.89,weatherlink.com 1.10,2013-02-26 06:47:00,
2013-02-26 01:02:00,45.6,44.0,29.60,NE,50,3.0,-999.0,93,-99.99,,,0.96,weatherlink.com 1.10,2013-02-26 07:02:00,
2013-02-26 01:17:00,45.8,44.0,29.58,ENE,65,8.0,-999.0,93,-99.99,,,0.99,weatherlink.com 1.10,2013-02-26 07:17:00,
2013-02-26 01:32:00,46.0,44.0,29.60,NE,34,11.0,-999.0,93,-99.99,,,0.05,weatherlink.com 1.10,2013-02-26 07:32:00,
2013-02-26 01:47:00,45.9,44.0,29.58,ENE,61,18.0,-999.0,93,-99.99,,,0.11,weatherlink.com 1.10,2013-02-26 07:47:00,
2013-02-26 02:02:00,45.9,44.0,29.57,East,98,18.0,-999.0,93,-99.99,,,0.13,weatherlink.com 1.10,2013-02-26 08:02:00,
2013-02-26 02:17:00,45.9,44.0,29.57,NNE,30,8.0,-999.0,93,-99.99,,,0.17,weatherlink.com 1.10,2013-02-26 08:17:00,
2013-02-26 02:32:00,45.7,44.0,29.58,NE,56,4.0,-999.0,93,-99.99,,,0.19,weatherlink.com 1.10,2013-02-26 08:32:00,
2013-02-26 02:47:00,45.7,44.0,29.57,ENE,69,11.0,-999.0,93,-99.99,,,0.19,weatherlink.com 1.10,2013-02-26 08:47:00,
2013-02-26 03:02:00,45.7,44.0,29.57,ENE,63,13.0,-999.0,92,-99.99,,,0.19,weatherlink.com 1.10,2013-02-26 09:02:00,
2013-02-26 03:17:00,45.5,43.0,29.56,ENE,78,8.0,-999.0,92,-99.99,,,0.20,weatherlink.com 1.10,2013-02-26 09:17:00,
2013-02-26 03:32:00,45.2,43.0,29.54,East,99,20.0,-999.0,92,-99.99,,,0.20,weatherlink.com 1.10,2013-02-26 09:32:00,
2013-02-26 03:47:00,45.2,43.0,29.53,East,91,11.0,-999.0,91,-99.99,,,0.20,weatherlink.com 1.10,2013-02-26 09:47:00,
2013-02-26 04:02:00,45.2,43.0,29.55,NE,53,7.0,-999.0,90,-99.99,,,0.20,weatherlink.com 1.10,2013-02-26 10:02:00,
2013-02-26 04:17:00,45.2,43.0,29.54,ENE,76,10.0,-999.0,90,-99.99,,,0.20,weatherlink.com 1.10,2013-02-26 10:17:00,
2013-02-26 04:32:00,45.2,43.0,29.53,ENE,78,15.0,-999.0,90,-99.99,,,0.20,weatherlink.com 1.10,2013-02-26 10:32:00,
2013-02-26 04:47:00,45.2,43.0,29.53,NNE,31,6.0,-999.0,90,-99.99,,,0.20,weatherlink.com 1.10,2013-02-26 10:47:00,
2013-02-26 05:02:00,45.1,42.0,29.54,ENE,57,7.0,-999.0,90,-99.99,,,0.20,weatherlink.com 1.10,2013-02-26 11:02:00,
2013-02-26 05:17:00,45.2,43.0,29.53,East,84,3.0,-999.0,90,-99.99,,,0.20,weatherlink.com 1.10,2013-02-26 11:17:00,
2013-02-26 05:32:00,45.2,43.0,29.52,ENE,61,8.0,-999.0,90,-99.99,,,0.20,weatherlink.com 1.10,2013-02-26 11:32:00,
2013-02-26 05:47:00,45.5,43.0,29.52,ENE,65,10.0,-999.0,90,-99.99,,,0.20,weatherlink.com 1.10,2013-02-26 11:47:00,
2013-02-26 06:02:00,45.5,43.0,29.51,ESE,110,1.0,-999.0,89,-99.99,,,0.20,weatherlink.com 1.10,2013-02-26 12:02:00,
2013-02-26 06:17:00,45.5,43.0,29.52,NE,51,5.0,-999.0,90,-99.99,,,0.20,weatherlink.com 1.10,2013-02-26 12:17:00,
2013-02-26 06:32:00,45.4,43.0,29.53,SSW,204,2.0,-999.0,90,-99.99,,,0.20,weatherlink.com 1.10,2013-02-26 12:32:00,
2013-02-26 06:47:00,45.4,43.0,29.51,ENE,64,4.0,-999.0,90,-99.99,,,0.20,weatherlink.com 1.10,2013-02-26 12:47:00,
2013-02-26 07:02:00,45.5,43.0,29.52,ENE,62,7.0,-999.0,90,-99.99,,,0.20,weatherlink.com 1.10,2013-02-26 13:02:00,
2013-02-26 07:17:00,45.4,43.0,29.52,NE,46,0.0,-999.0,90,-99.99,,,0.20,weatherlink.com 1.10,2013-02-26 13:17:00,
2013-02-26 07:32:00,45.4,43.0,29.52,East,98,0.0,-999.0,91,-99.99,,,0.20,weatherlink.com 1.10,2013-02-26 13:32:00,
2013-02-26 07:47:00,45.5,43.0,29.52,NNE,19,1.0,-999.0,90,-99.99,,,0.20,weatherlink.com 1.10,2013-02-26 13:47:00,
2013-02-26 08:02:00,45.6,43.0,29.53,NE,40,2.0,-999.0,90,-99.99,,,0.20,weatherlink.com 1.10,2013-02-26 14:02:00,
2013-02-26 08:17:00,45.8,43.0,29.54,ESE,109,2.0,-999.0,91,-99.99,,,0.20,weatherlink.com 1.10,2013-02-26 14:17:00,
2013-02-26 08:32:00,45.6,44.0,29.53,SSW,207,2.0,-999.0,92,-99.99,,,0.20,weatherlink.com 1.10,2013-02-26 14:32:00,
2013-02-26 08:47:00,45.6,44.0,29.54,WSW,254,2.0,-999.0,93,-99.99,,,0.21,weatherlink.com 1.10,2013-02-26 14:47:00,
2013-02-26 09:02:00,45.6,44.0,29.55,SSW,213,0.0,-999.0,94,-99.99,,,0.21,weatherlink.com 1.10,2013-02-26 15:02:00,
2013-02-26 09:17:00,45.9,44.0,29.54,SSW,213,0.0,-999.0,94,-99.99,,,0.22,weatherlink.com 1.10,2013-02-26 15:17:00,
2013-02-26 09:33:00,46.4,45.0,29.53,SSE,154,5.0,-999.0,95,-99.99,,,0.22,weatherlink.com 1.10,2013-02-26 15:33:00,
2013-02-26 09:48:00,47.0,46.0,29.53,SSE,158,6.0,-999.0,95,-99.99,,,0.22,weatherlink.com 1.10,2013-02-26 15:48:00,
2013-02-26 10:03:00,47.7,46.0,29.54,WSW,243,2.0,-999.0,95,-99.99,,,0.22,weatherlink.com 1.10,2013-02-26 16:03:00,
2013-02-26 10:18:00,47.0,45.0,29.56,NNW,348,1.0,-999.0,94,-99.99,,,0.22,weatherlink.com 1.10,2013-02-26 16:18:00,
2013-02-26 10:33:00,46.9,46.0,29.56,SW,231,0.0,-999.0,95,-99.99,,,0.22,weatherlink.com 1.10,2013-02-26 16:33:00,
2013-02-26 10:48:00,47.1,46.0,29.57,WSW,258,0.0,-999.0,94,-99.99,,,0.22,weatherlink.com 1.10,2013-02-26 16:48:00,
2013-02-26 11:03:00,47.7,46.0,29.57,SSW,204,4.0,-999.0,92,-99.99,,,0.22,weatherlink.com 1.10,2013-02-26 17:03:00,
2013-02-26 11:18:00,48.4,44.0,29.59,WSW,241,2.0,-999.0,83,-99.99,,,0.22,weatherlink.com 1.10,2013-02-26 17:18:00,
2013-02-26 11:33:00,49.7,43.0,29.58,West,275,7.0,-999.0,78,-99.99,,,0.22,weatherlink.com 1.10,2013-02-26 17:33:00,
2013-02-26 11:48:00,49.7,41.0,29.59,West,272,10.0,-999.0,72,-99.99,,,0.22,weatherlink.com 1.10,2013-02-26 17:48:00,
2013-02-26 12:03:00,49.3,40.0,29.59,SW,231,9.0,-999.0,71,-99.99,,,0.22,weatherlink.com 1.10,2013-02-26 18:03:00,
2013-02-26 12:18:00,49.0,40.0,29.60,NW,322,3.0,-999.0,70,-99.99,,,0.22,weatherlink.com 1.10,2013-02-26 18:18:00,
2013-02-26 12:33:00,49.0,39.0,29.60,SSE,154,0.0,-999.0,69,-99.99,,,0.22,weatherlink.com 1.10,2013-02-26 18:33:00,
2013-02-26 12:48:00,49.9,40.0,29.59,SW,233,2.0,-999.0,68,-99.99,,,0.22,weatherlink.com 1.10,2013-02-26 18:48:00,
2013-02-26 13:03:00,49.1,39.0,29.59,SW,217,5.0,-999.0,68,-99.99,,,0.22,weatherlink.com 1.10,2013-02-26 19:03:00,
2013-02-26 13:18:00,49.1,40.0,29.60,SW,232,2.0,-999.0,70,-99.99,,,0.22,weatherlink.com 1.10,2013-02-26 19:18:00,
2013-02-26 13:33:00,48.7,39.0,29.61,SSW,195,4.0,-999.0,68,-99.99,,,0.22,weatherlink.com 1.10,2013-02-26 19:33:00,
2013-02-26 13:48:00,48.5,38.0,29.61,NW,317,4.0,-999.0,67,-99.99,,,0.22,weatherlink.com 1.10,2013-02-26 19:48:00,
2013-02-26 14:03:00,47.9,37.0,29.61,SW,218,3.0,-999.0,67,-99.99,,,0.22,weatherlink.com 1.10,2013-02-26 20:03:00,
2013-02-26 14:18:00,47.5,37.0,29.61,WSW,257,5.0,-999.0,68,-99.99,,,0.22,weatherlink.com 1.10,2013-02-26 20:18:00,
2013-02-26 15:03:00,46.6,38.0,29.64,WNW,285,6.0,-999.0,71,-99.99,,,0.22,weatherlink.com 1.10,2013-02-26 21:03:00,
2013-02-26 15:18:00,46.4,38.0,29.64,SSE,156,1.0,-999.0,73,-99.99,,,0.22,weatherlink.com 1.10,2013-02-26 21:18:00,
2013-02-26 15:33:00,46.3,37.0,29.64,NW,305,5.0,-999.0,71,-99.99,,,0.22,weatherlink.com 1.10,2013-02-26 21:33:00,
2013-02-26 15:48:00,46.1,38.0,29.65,SSW,211,1.0,-999.0,72,-99.99,,,0.22,weatherlink.com 1.10,2013-02-26 21:48:00,
2013-02-26 16:03:00,46.0,37.0,29.66,SSW,204,1.0,-999.0,72,-99.99,,,0.22,weatherlink.com 1.10,2013-02-26 22:03:00,
2013-02-26 16:18:00,45.8,37.0,29.66,WSW,246,0.0,-999.0,71,-99.99,,,0.22,weatherlink.com 1.10,2013-02-26 22:18:00,
2013-02-26 16:33:00,45.6,37.0,29.67,WSW,254,3.0,-999.0,71,-99.99,,,0.22,weatherlink.com 1.10,2013-02-26 22:33:00,
2013-02-26 16:48:00,45.4,37.0,29.67,West,261,1.0,-999.0,73,-99.99,,,0.22,weatherlink.com 1.10,2013-02-26 22:48:00,
2013-02-26 17:03:00,45.3,37.0,29.68,West,271,4.0,-999.0,72,-99.99,,,0.22,weatherlink.com 1.10,2013-02-26 23:03:00,
2013-02-26 17:18:00,45.1,37.0,29.69,WNW,284,2.0,-999.0,74,-99.99,,,0.22,weatherlink.com 1.10,2013-02-26 23:18:00,
2013-02-26 17:33:00,45.0,37.0,29.69,SSW,209,2.0,-999.0,73,-99.99,,,0.22,weatherlink.com 1.10,2013-02-26 23:33:00,
2013-02-26 17:48:00,44.9,36.0,29.70,West,263,3.0,-999.0,72,-99.99,,,0.22,weatherlink.com 1.10,2013-02-26 23:48:00,
2013-02-26 18:03:00,44.8,37.0,29.71,West,278,12.0,-999.0,73,-99.99,,,0.22,weatherlink.com 1.10,2013-02-27 00:03:00,
2013-02-26 18:18:00,44.8,37.0,29.72,South,177,0.0,-999.0,73,-99.99,,,0.22,weatherlink.com 1.10,2013-02-27 00:18:00,
2013-02-26 18:33:00,44.8,36.0,29.72,West,271,5.0,-999.0,72,-99.99,,,0.22,weatherlink.com 1.10,2013-02-27 00:33:00,
2013-02-26 18:48:00,44.8,36.0,29.73,West,262,6.0,-999.0,71,-99.99,,,0.22,weatherlink.com 1.10,2013-02-27 00:48:00,
2013-02-26 19:03:00,44.7,36.0,29.73,SW,225,1.0,-999.0,72,-99.99,,,0.22,weatherlink.com 1.10,2013-02-27 01:03:00,
2013-02-26 19:18:00,44.6,36.0,29.74,West,269,3.0,-999.0,72,-99.99,,,0.22,weatherlink.com 1.10,2013-02-27 01:18:00,
2013-02-26 19:33:00,44.5,36.0,29.75,WNW,296,3.0,-999.0,73,-99.99,,,0.22,weatherlink.com 1.10,2013-02-27 01:33:00,
2013-02-26 19:48:00,44.4,36.0,29.76,SSW,212,3.0,-999.0,73,-99.99,,,0.22,weatherlink.com 1.10,2013-02-27 01:48:00,
2013-02-26 20:03:00,44.2,35.0,29.77,SW,231,3.0,-999.0,69,-99.99,,,0.22,weatherlink.com 1.10,2013-02-27 02:03:00,
2013-02-26 20:18:00,43.8,35.0,29.78,NW,306,5.0,-999.0,70,-99.99,,,0.22,weatherlink.com 1.10,2013-02-27 02:18:00,
2013-02-26 20:34:00,43.7,34.0,29.79,NW,311,3.0,-999.0,68,-99.99,,,0.22,weatherlink.com 1.10,2013-02-27 02:34:00,
2013-02-26 20:49:00,43.6,34.0,29.79,WNW,297,3.0,-999.0,68,-99.99,,,0.22,weatherlink.com 1.10,2013-02-27 02:49:00,
2013-02-26 21:04:00,43.5,34.0,29.80,WSW,240,6.0,-999.0,69,-99.99,,,0.22,weatherlink.com 1.10,2013-02-27 03:04:00,
2013-02-26 21:34:00,43.3,34.0,29.80,South,186,0.0,-999.0,71,-99.99,,,0.22,weatherlink.com 1.10,2013-02-27 03:34:00,
2013-02-26 21:49:00,43.3,35.0,29.80,SSW,209,1.0,-999.0,72,-99.99,,,0.22,weatherlink.com 1.10,2013-02-27 03:49:00,
2013-02-26 22:04:00,43.1,35.0,29.80,West,265,2.0,-999.0,73,-99.99,,,0.22,weatherlink.com 1.10,2013-02-27 04:04:00,
2013-02-26 22:19:00,43.2,35.0,29.81,West,259,1.0,-999.0,72,-99.99,,,0.22,weatherlink.com 1.10,2013-02-27 04:19:00,
2013-02-26 22:34:00,43.3,35.0,29.81,West,264,2.0,-999.0,73,-99.99,,,0.22,weatherlink.com 1.10,2013-02-27 04:34:00,
2013-02-26 22:49:00,43.1,35.0,29.81,WSW,250,1.0,-999.0,72,-99.99,,,0.22,weatherlink.com 1.10,2013-02-27 04:49:00,
2013-02-26 23:04:00,43.1,35.0,29.81,SW,216,3.0,-999.0,73,-99.99,,,0.22,weatherlink.com 1.10,2013-02-27 05:04:00,
2013-02-26 23:19:00,43.0,35.0,29.82,WSW,252,2.0,-999.0,73,-99.99,,,0.22,weatherlink.com 1.10,2013-02-27 05:19:00,
2013-02-26 23:34:00,42.7,35.0,29.82,West,268,3.0,-999.0,73,-99.99,,,0.22,weatherlink.com 1.10,2013-02-27 05:34:00,
2013-02-26 23:49:00,42.5,35.0,29.83,West,273,1.0,-999.0,74,-99.99,,,0.22,weatherlink.com 1.10,2013-02-27 05:49:00,